Location: Unspecified
(51.0950°N, 12.9690°E)
Time: 22:44:42
(UTC+00:00)

Cosmos 2173 Rocket - Pass Details

Date: 28 October 2021
Orbit: 945 x 1000 km, 83.0° (Epoch: 01 December)

Event Time Altitude Azimuth Distance (km) Brightness Sun altitude
Rises 18:24:27 0° 191° (S) 3,649 7.0 -24.8°
Reaches altitude 10° 18:26:56 10° 192° (SSW) 2,714 6.3 -25.2°
Maximum altitude 18:33:10 81° 280° (W) 1,002 4.0 -26.2°
Drops below altitude 10° 18:39:33 10° 8° (N) 2,768 6.4 -27.2°
Sets 18:42:06 0° 10° (N) 3,727 7.1 -27.6°
